Location: Newark
(41.6500°N, 71.4833°W)
Time: 14:39:27
(UTC+00:00)

Transit 2A Rocket - Pass Details

Date: 29 January 2020
Orbit: 591 x 912 km, 66.7° (Epoch: 29 February)

Event Time Altitude Azimuth Distance (km) Brightness Sun altitude
Rises 07:58:18 0° 177° (S) 2,843 - -45.2°
Reaches altitude 10° 08:00:53 10° 163° (SSE) 1,924 - -44.7°
Maximum altitude 08:04:17 23° 110° (ESE) 1,265 - -44.1°
Drops below altitude 10° 08:07:41 10° 57° (ENE) 1,930 - -43.5°
Exits shadow 08:09:28 - 47° (NE) 2,549 8.3 -43.2°
Sets 08:10:17 0° 43° (NE) 2,854 8.6 -43.1°
